Weather History for KBPT - May, 2013

Change the Weather History Date:

Saturday, May 18, 2013

  Actual Average Record
Temperature  
Mean Temperature 80 °F 76 °F  
Max Temperature 86 °F 85 °F 93 °F (1988)
Min Temperature 73 °F 68 °F 53 °F (1976)
Degree Days  
Heating Degree Days 0 0  
Month to date heating degree days 20 0  
Since 1 July heating degree days 1262 1400  
Cooling Degree Days 15 11  
Month to date cooling degree days 91 171  
Year to date cooling degree days 272 398  
Growing Degree Days 30 (Base 50)    
Moisture  
Dew Point 71 °F    
Average Humidity 77    
Maximum Humidity 93    
Minimum Humidity 61    
Precipitation  
Precipitation 0.00 in 0.16 in 9.89 in (1989)
Month to date precipitation 8.95 3.04  
Year to date precipitation 27.60 18.62  
Snow  
Snow 0.00 in 0.00 in 0.00 in ()
Month to date snowfall 0.0 0.0  
Since 1 July snowfall 0.0 T  
Snow Depth 0.00 in    
Sea Level Pressure  
Sea Level Pressure 29.96 in    
Wind  
Wind Speed 12 mph (SSE)    
Max Wind Speed 21 mph    
Max Gust Speed 26 mph    
Visibility 9 miles    
Events      
T = Trace of Precipitation, MM = Missing Value Source: NWS Daily Summary

Daily Weather History Graph

Daily Weather History Graph

Search for Another Location

Airport or City:

Trip Planner

Search our weather history database for the weather conditions in past years. The results will help you decide how hot, cold, wet, or windy it might be!

Date:

Astronomy

May. 18, 2013 Rise Set
Actual Time 6:20 AM CDT 8:04 PM CDT
Civil Twilight 5:54 AM CDT 8:30 PM CDT
Nautical Twilight 5:22 AM CDT 9:02 PM CDT
Astronomical Twilight 4:49 AM CDT 9:36 PM CDT
Moon 1:37 PM CDT (5/18) 1:43 AM CDT (5/18)
Length of Visible Light 14h 36m
Length of Day
13h 43m
First Quarter, 55% of the Moon is Illuminated
May 18
First Quarter
May 24
Full
May 31
Last Quarter
Jun 8
New
Jun 16
First Quarter

Hourly Weather History & Observations

Time (CDT) Temp. Heat Index Dew Point Humidity Pressure Visibility Wind Dir Wind Speed Gust Speed Precip Events Conditions
12:53 AM 75.0 °F - 71.1 °F 87% 29.96 in 8.0 mi SSE 13.8 mph - N/A   Overcast
1:53 AM 75.9 °F - 71.1 °F 85% 29.94 in 9.0 mi SSE 12.7 mph 20.7 mph N/A   Overcast
2:53 AM 75.0 °F - 71.1 °F 87% 29.93 in 8.0 mi South 13.8 mph 21.9 mph N/A   Overcast
3:53 AM 75.0 °F - 71.1 °F 87% 29.94 in 7.0 mi South 12.7 mph - N/A   Overcast
4:53 AM 75.0 °F - 71.1 °F 87% 29.94 in 7.0 mi South 10.4 mph - N/A   Overcast
5:53 AM 75.0 °F - 71.1 °F 87% 29.95 in 8.0 mi South 8.1 mph - N/A   Overcast
6:53 AM 73.9 °F - 70.0 °F 87% 29.96 in 6.0 mi South 8.1 mph - N/A   Mostly Cloudy
7:53 AM 75.0 °F - 71.1 °F 87% 29.99 in 3.0 mi South 9.2 mph - N/A   Haze
8:53 AM 77.0 °F - 71.1 °F 82% 29.99 in 6.0 mi South 9.2 mph - N/A   Haze
9:53 AM 79.0 °F - 70.0 °F 74% 30.00 in 10.0 mi South 11.5 mph 18.4 mph N/A   Haze
10:49 AM 80.6 °F 83.9 °F 69.8 °F 70% 29.99 in 10.0 mi South 12.7 mph - N/A   Scattered Clouds
10:53 AM 81.0 °F 84.9 °F 71.1 °F 72% 29.99 in 10.0 mi South 11.5 mph - N/A   Scattered Clouds
11:53 AM 82.9 °F 87.5 °F 71.1 °F 67% 30.00 in 10.0 mi SSE 12.7 mph - N/A   Partly Cloudy
12:53 PM 84.0 °F 87.8 °F 69.1 °F 61% 29.99 in 10.0 mi South 15.0 mph 20.7 mph N/A   Clear
1:53 PM 84.2 °F 88.4 °F 69.8 °F 62% 29.98 in 10.0 mi SSE 13.8 mph - N/A   Partly Cloudy
2:53 PM 84.9 °F 90.1 °F 71.1 °F 63% 29.97 in 10.0 mi SSE 12.7 mph - N/A   Scattered Clouds
3:53 PM 84.0 °F 89.0 °F 71.1 °F 65% 29.96 in 10.0 mi South 16.1 mph - N/A   Scattered Clouds
4:53 PM 82.9 °F 86.5 °F 69.1 °F 63% 29.95 in 10.0 mi South 13.8 mph - N/A   Clear
5:53 PM 82.0 °F 86.3 °F 71.1 °F 69% 29.95 in 10.0 mi SSE 15.0 mph - N/A   Clear
6:53 PM 79.0 °F - 70.0 °F 74% 29.94 in 10.0 mi SSE 10.4 mph - N/A   Clear
7:53 PM 75.9 °F - 71.1 °F 85% 29.95 in 9.0 mi SSE 11.5 mph - N/A   Clear
8:53 PM 73.4 °F - 71.6 °F 94% 29.96 in 7.0 mi SSE 8.1 mph - N/A   Clear
9:53 PM 75.0 °F - 71.1 °F 87% 29.95 in 9.0 mi SSE 9.2 mph - N/A   Partly Cloudy
10:26 PM 75.2 °F - 71.6 °F 89% 29.95 in 7.0 mi SSE 9.2 mph - N/A   Mostly Cloudy
10:53 PM 75.0 °F - 72.0 °F 90% 29.94 in 7.0 mi SSE 12.7 mph - N/A   Mostly Cloudy
11:53 PM 75.0 °F - 71.1 °F 87% 29.94 in 10.0 mi SSE 16.1 mph 23.0 mph N/A   Mostly Cloudy